Regional Weather Roundup
Issued by NWS

Home | Current Version | Previous Version | Graphics & Text | Print | Product List | Glossary On
Versions: 1 2 3 4 5 6 7 8 9 10 11 12 13 14 15 16 17 18 19 20 21 22 23 24 25 26 27 28 29 30 31 32 33 34 35 36 37 38 39 40 41 42 43 44 45 46 47 48 49 50
000
ASUS43 KTOP 271059
RWRKS

WEATHER ROUNDUP FOR KANSAS
NATIONAL WEATHER SERVICE GOODLAND KS
500 AM CST SAT DEC 27 2014

NOTE:  "FAIR" INDICATES FEW OR NO CLOUDS BELOW 12,000 FEET WITH NO
SIGNIFICANT WEATHER AND/OR OBSTRUCTIONS TO VISIBILITY.

KSZ001>006-013>018-027>032-041>047-271200-
NORTHWEST KANSAS

CITY           SKY/WX    TMP DP  RH WIND       PRES   REMARKS
GOODLAND       CLEAR      5   2  87 W10       30.15R WCI -10
HAYS           CLEAR     16   3  57 NW10      30.23R WCI   3
HILL CITY      CLEAR      8   5  87 W8        30.24R
RUSSELL        PTCLDY    17  14  88 NW10      30.22R WCI   5
$$

KSZ061>065-074>080-084>089-271200-
SOUTHWEST KANSAS

CITY           SKY/WX    TMP DP  RH WIND       PRES   REMARKS
DODGE CITY     MOCLDY    17  12  80 NW10      30.20S WCI   5
ELKHART          N/A     13   7  78 NW6         N/A
GARDEN CITY    PTCLDY    12   9  87 NW9       30.22R
GREAT BEND     PTCLDY    19  12  73 NW16      30.22R WCI   5
LIBERAL        MOCLDY    19  12  73 NW12      30.21S WCI   7
$$

KSZ066>073-081>083-090>101-271200-
SOUTHEAST KANSAS

CITY           SKY/WX    TMP DP  RH WIND       PRES   REMARKS
CHANUTE        CLOUDY    34  29  82 NW13      30.16R WCI  25
COFFEYVILLE    CLOUDY    36  28  73 NW16      30.19R WCI  26
HUTCHINSON     CLOUDY    26  18  71 NW16      30.19S WCI  14
MEDICINE LODGE   N/A     26  20  77 N14G22    30.20R WCI  14
NEWTON         CLOUDY    27  16  63 N14       30.18F WCI  15
PARSONS        CLOUDY    35  29  78 NW16G23   30.20R WCI  25
WICHITA INTL   CLOUDY    29  20  69 NW17      30.21R WCI  17
WICHITA JABRA  CLOUDY    27  21  78 NW9       30.20R
WINFIELD       CLOUDY    32  25  75 NW13      30.21R WCI  22
$$

KSZ007>012-019>026-033>040-048>060-102>105-271200-
NORTHEAST KANSAS

CITY           SKY/WX    TMP DP  RH WIND       PRES   REMARKS
CONCORDIA      PTCLDY    21  17  84 NW14      30.18R WCI   8
EMPORIA        CLOUDY    28  24  85 NW14      30.15F WCI  17
LAWRENCE       CLOUDY    32  27  81 W10       30.14F WCI  24
MANHATTAN      CLOUDY    26  21  81 NW9G18    30.19R
OLATHE IND     CLOUDY    33  29  85 W14       30.12S WCI  23
OLATHE EXE     CLOUDY    34  29  82 NW13      30.10R WCI  25
SALINA         CLOUDY    25  19  78 NW16      30.21R WCI  12
TOPEKA BILLARD CLOUDY    31  25  78 W13       30.17R WCI  21
TOPEKA FORBES  CLOUDY    30  25  81 W16       30.14R WCI  19
$$


USA.gov is the U.S. government's official web portal to all federal, state and local government web resources and services.